Regional Weather Roundup
Issued by NWS

Home | Current Version | Previous Version | Text Only | Print | Product List | Glossary On
Versions: 1 2 3 4 5 6 7 8 9 10 11 12 13 14 15 16 17 18 19 20 21 22 23 24 25 26 27 28 29 30 31 32 33 34 35 36 37 38 39 40 41 42 43 44 45 46 47 48 49 50
000
ASUS45 KCYS 261610
RWRWY

WYOMING REGIONAL WEATHER ROUNDUP
NATIONAL WEATHER SERVICE CHEYENNE WY
1000 AM MDT TUE MAY 26 2015

NOTE:  "FAIR" INDICATES FEW OR NO CLOUDS BELOW 12,000 FEET
WITH NO SIGNIFICANT WEATHER AND/OR OBSTRUCTIONS TO VISIBILITY.

WYZ001-261700-
YELLOWSTONE NATIONAL PARK

CITY           SKY/WX    TMP DP  RH WIND       PRES   REMARKS
LK YELLOWSTONE   N/A     42  39  89 CALM      30.12S
W YELLOWSTONE  NOT AVBL

$$
WYZ002>013-054>058-071-098>099-261700-
NORTHERN WYOMING

CITY           SKY/WX    TMP DP  RH WIND       PRES   REMARKS
JACKSON        CLOUDY    48  43  81 CALM      30.08S
CODY           CLOUDY    57  41  54 W6        29.98S
GREYBULL       FAIR      63  45  51 S7        29.95F
WORLAND        FAIR      58  49  72 VRB3      29.96S
SHERIDAN       FAIR      61  47  59 CALM      29.95F
BUFFALO        FAIR      58  48  69 VRB5      29.99R
GILLETTE       FAIR      61  47  59 SE6       29.97S
HULETT         PTSUNNY   59  52  77 NW6       29.99S
NEWCASTLE      CLOUDY    55  46  71 S8        30.02S

$$
WYZ014>020-022>026-101>103-261700-
CENTRAL WYOMING

CITY           SKY/WX    TMP DP  RH WIND       PRES   REMARKS
BIG PINEY      PTSUNNY   49  40  71 VRB5      30.11S
PINEDALE       CLOUDY    50  41  71 W3        30.11S
DUBOIS         FAIR      52  39  62 N7        30.06F
LANDER         FAIR      60  43  53 E8        30.00S
RIVERTON       FAIR      57  41  55 CALM      30.03S
CASPER         FAIR      59  45  59 SW12      30.02
DOUGLAS        FAIR      60  45  57 SE5       30.02S

$$
WYZ021-027>030-104>119-261700-
SOUTHERN WYOMING

CITY           SKY/WX    TMP DP  RH WIND       PRES   REMARKS
EVANSTON       LGT RAIN  44  42  93 CALM      30.13R
KEMMERER       CLOUDY    50  41  71 CALM      30.12S
FORT BRIDGER   CLOUDY    52  45  76 CALM      30.14S
ROCK SPRINGS   FAIR      53  42  66 W10       30.10S
DIXON          PTSUNNY   56  43  61 CALM      30.14S
RAWLINS        FAIR      55  41  59 SW15G21   30.09F
SARATOGA       PTSUNNY   54  39  58 W3        30.12S
LARAMIE        FAIR      54  38  54 VRB5      30.09S
CHEYENNE       CLOUDY    57  41  55 S5        30.07S
TORRINGTON     FAIR      56  51  84 W5        30.01S
PINE BLUFFS    PTSUNNY   55  46  71 NE3       30.05F

$$


USA.gov is the U.S. government's official web portal to all federal, state and local government web resources and services.